TimeEST,TemperatureF,Dew PointF,Humidity,Sea Level PressureIn,VisibilityMPH,Wind Direction,Wind SpeedMPH,Gust SpeedMPH,PrecipitationIn,Events,Conditions,WindDirDegrees,DateUTC
12:09 AM,14.0,10.4,86,30.17,10.0,NW,4.6,-,N/A,,Partly Cloudy,320,2013-02-17 05:09:00
12:55 AM,11.5,8.1,86,30.17,10.0,NW,6.9,-,N/A,,Clear,320,2013-02-17 05:55:00
1:55 AM,12.4,8.4,84,30.17,10.0,WNW,5.8,-,N/A,,Clear,300,2013-02-17 06:55:00
2:55 AM,12.2,8.1,83,30.17,10.0,WNW,5.8,-,N/A,,Clear,300,2013-02-17 07:55:00
3:55 AM,11.5,7.0,82,30.17,10.0,WNW,8.1,-,N/A,,Clear,300,2013-02-17 08:55:00
4:55 AM,10.9,6.3,81,30.18,10.0,WNW,6.9,-,N/A,,Clear,290,2013-02-17 09:55:00
5:55 AM,9.9,5.4,82,30.20,10.0,West,4.6,-,N/A,,Clear,280,2013-02-17 10:55:00
6:55 AM,9.5,5.5,84,30.21,10.0,West,8.1,-,N/A,,Clear,270,2013-02-17 11:55:00
7:55 AM,10.4,5.5,81,30.23,10.0,West,4.6,-,N/A,,Clear,280,2013-02-17 12:55:00
8:55 AM,14.5,8.2,76,30.24,10.0,WNW,6.9,-,N/A,,Clear,290,2013-02-17 13:55:00
9:55 AM,17.8,10.8,74,30.25,10.0,WNW,5.8,-,N/A,,Clear,290,2013-02-17 14:55:00
10:30 AM,19.4,12.2,74,30.20,10.0,WNW,4.6,-,N/A,,Clear,290,2013-02-17 15:30:00
10:55 AM,20.5,11.8,69,30.25,10.0,Variable,3.5,-,N/A,,Clear,0,2013-02-17 15:55:00
11:55 AM,23.2,11.3,60,30.25,10.0,Calm,Calm,-,N/A,,Clear,0,2013-02-17 16:55:00
12:55 PM,25.9,10.9,53,30.24,10.0,Variable,5.8,-,N/A,,Partly Cloudy,0,2013-02-17 17:55:00
1:55 PM,27.5,9.9,48,30.23,10.0,Variable,3.5,-,N/A,,Clear,0,2013-02-17 18:55:00
2:55 PM,28.9,8.1,41,30.22,10.0,South,10.4,-,N/A,,Clear,190,2013-02-17 19:55:00
3:55 PM,29.5,9.3,43,30.20,10.0,Variable,6.9,-,N/A,,Clear,0,2013-02-17 20:55:00
4:55 PM,29.7,10.4,45,30.22,10.0,SW,9.2,-,N/A,,Clear,220,2013-02-17 21:55:00
5:55 PM,27.9,10.4,48,30.19,10.0,SSW,8.1,-,N/A,,Clear,200,2013-02-17 22:55:00
6:55 PM,24.3,12.9,62,30.18,10.0,South,5.8,-,N/A,,Clear,170,2013-02-17 23:55:00
7:55 PM,23.4,15.3,71,30.17,10.0,SSE,5.8,-,N/A,,Partly Cloudy,150,2013-02-18 00:55:00
8:55 PM,22.8,14.7,71,30.18,10.0,SSE,6.9,-,N/A,,Clear,150,2013-02-18 01:55:00
9:55 PM,23.2,15.3,72,30.17,10.0,SSE,8.1,-,N/A,,Clear,150,2013-02-18 02:55:00
10:55 PM,23.5,16.0,73,30.16,10.0,SSE,9.2,-,N/A,,Scattered Clouds,150,2013-02-18 03:55:00
11:55 PM,24.8,15.1,67,30.14,10.0,SSE,10.4,-,N/A,,Clear,150,2013-02-18 04:55:00